Location: Caltech
(34.1382°N, 118.1253°W)
Time: 06:17:25
(UTC-07:00)

Iridium 68 - Visible Passes

Search period start: 31 August 2015 00:00
Search period end: 10 September 2015 00:00
Orbit: 776 x 779 km, 86.4° (Epoch: 30 August)

Date Brightness Start Highest point End Pass type
(mag) Time Alt. Az. Time Alt. Az. Time Alt. Az.
31 Aug 8.6 22:17:00 10° NNE 22:17:02 10° NNE 22:17:02 10° NNE visible
01 Sep 8.8 23:23:30 10° NNW 23:24:03 13° NNW 23:24:03 13° NNW visible
02 Sep 8.6 22:49:53 10° N 22:50:37 14° N 22:50:37 14° N visible
03 Sep 8.5 22:16:40 10° NNE 22:17:11 13° NNE 22:17:11 13° NNE visible
04 Sep 8.9 23:23:50 10° NNW 23:24:13 12° NNW 23:24:13 12° NNW visible
05 Sep 8.6 22:49:57 10° N 22:50:48 15° N 22:50:48 15° N visible
06 Sep 8.4 22:16:29 10° N 22:17:23 15° N 22:17:23 15° N visible
07 Sep 8.4 21:43:27 10° NNE 21:43:59 12° NNE 21:43:59 12° NNE visible
07 Sep 9.0 23:24:21 10° NNW 23:24:27 10° NNW 23:24:27 10° NNW visible
08 Sep 8.7 22:50:11 10° NNW 22:51:03 15° NNW 22:51:03 15° NNW visible
09 Sep 8.3 22:16:29 10° N 22:17:40 17° N 22:17:40 17° N visible
